Weather History for Tekamah, NE

Change the Weather History Date:

Sunday, February 2, 2014

  Actual Average Record
Temperature  
Mean Temperature 12 °F -  
Max Temperature 30 °F 30 °F 58 °F (1987)
Min Temperature -6 °F 11 °F -16 °F (1978)
Degree Days  
Heating Degree Days 53    
Moisture  
Dew Point 1 °F    
Average Humidity 66    
Maximum Humidity 84    
Minimum Humidity 41    
Precipitation  
Precipitation 0.00 in - - ()
Sea Level Pressure  
Sea Level Pressure 30.35 in    
Wind  
Wind Speed 6 mph (SSW)    
Max Wind Speed 13 mph    
Max Gust Speed -    
Visibility 10 miles    
Events      
Averages and records for this station are not official NWS values.
T = Trace of Precipitation, MM = Missing Value Source: NWS Daily Summary

Daily Weather History Graph

Daily Weather History Graph

Search for Another Location

Airport:

Trip Planner

Search our weather history database for the weather conditions in past years. The results will help you decide how hot, cold, wet, or windy it might be!

Date:

Astronomy

Feb. 02, 2014 Rise Set
Actual Time 7:35 AM CST 5:41 PM CST
Civil Twilight 7:06 AM CST 6:10 PM CST
Nautical Twilight 6:33 AM CST 6:44 PM CST
Astronomical Twilight 6:00 AM CST 7:16 PM CST
Moon 8:59 AM CST (2/2) 9:30 PM CST (2/2)
Length of Visible Light 11h 04m
Length of Day
10h 05m
Waxing Crescent, 11% of the Moon is Illuminated
Feb 2
Waxing Crescent
Feb 6
First Quarter
Feb 14
Full
Feb 22
Last Quarter
Mar 1
New

Hourly Weather History & Observations

Time (CST) Temp. Windchill Dew Point Humidity Pressure Visibility Wind Dir Wind Speed Gust Speed Precip Events Conditions
12:54 AM 1.0 °F -10.3 °F -4.0 °F 79% 30.38 in 10.0 mi NW 5.8 mph - N/A   Clear
1:54 AM -2.9 °F - -9.0 °F 75% 30.38 in 10.0 mi Calm Calm - N/A   Clear
2:54 AM -2.9 °F - -7.1 °F 82% 30.40 in 10.0 mi Calm Calm - N/A   Clear
3:54 AM -4.0 °F -12.4 °F -9.9 °F 76% 30.39 in 10.0 mi SW 3.5 mph - N/A   Clear
4:54 AM -2.9 °F -11.2 °F -8.0 °F 79% 30.40 in 10.0 mi West 3.5 mph - N/A   Clear
5:54 AM -4.0 °F -12.4 °F -9.9 °F 76% 30.40 in 10.0 mi SW 3.5 mph - N/A   Clear
6:54 AM -6.0 °F - -11.9 °F 75% 30.40 in 10.0 mi Calm Calm - N/A   Clear
7:54 AM -6.0 °F - -11.9 °F 75% 30.42 in 10.0 mi Calm Calm - N/A   Clear
8:54 AM 3.9 °F -9.4 °F -0.0 °F 84% 30.44 in 10.0 mi SSE 8.1 mph - N/A   Clear
9:54 AM 10.9 °F -0.8 °F 3.9 °F 73% 30.43 in 10.0 mi SW 8.1 mph - N/A   Clear
10:54 AM 17.1 °F 5.0 °F 6.1 °F 62% 30.43 in 10.0 mi SSW 10.4 mph - N/A   Clear
11:54 AM 19.0 °F 10.0 °F 3.9 °F 52% 30.41 in 10.0 mi SSW 6.9 mph - N/A   Clear
12:54 PM 23.0 °F 11.1 °F 7.0 °F 50% 30.37 in 10.0 mi SSW 12.7 mph - N/A   Clear
1:54 PM 26.1 °F 15.0 °F 8.1 °F 47% 30.33 in 10.0 mi WSW 12.7 mph - N/A   Clear
2:54 PM 28.9 °F 19.2 °F 9.0 °F 43% 30.30 in 10.0 mi WSW 11.5 mph - N/A   Clear
3:54 PM 30.0 °F 20.5 °F 10.0 °F 43% 30.28 in 10.0 mi SW 11.5 mph - N/A   Clear
4:54 PM 30.0 °F 21.7 °F 9.0 °F 41% 30.27 in 10.0 mi South 9.2 mph - N/A   Clear
5:54 PM 21.9 °F 11.7 °F 7.0 °F 53% 30.28 in 10.0 mi SSE 9.2 mph - N/A   Clear
6:54 PM 18.0 °F 5.4 °F 7.0 °F 62% 30.28 in 10.0 mi SSE 11.5 mph - N/A   Clear
7:54 PM 15.1 °F 2.5 °F 6.1 °F 68% 30.29 in 10.0 mi South 10.4 mph - N/A   Clear
8:54 PM 14.0 °F 2.0 °F 6.1 °F 71% 30.29 in 10.0 mi South 9.2 mph - N/A   Clear
9:54 PM 10.9 °F -1.8 °F 3.9 °F 73% 30.29 in 10.0 mi SSE 9.2 mph - N/A   Clear
10:54 PM 9.0 °F -4.2 °F 1.9 °F 73% 30.28 in 10.0 mi SSE 9.2 mph - N/A   Clear
11:54 PM 8.1 °F -5.3 °F 1.0 °F 73% 30.28 in 10.0 mi SE 9.2 mph - N/A   Clear